Weather History for Truckee-Tahoe, CA

Change the Weather History Date:

Monday, August 4, 2014

  Actual Average Record
Temperature  
Mean Temperature 56 °F -  
Max Temperature 60 °F 84 °F 107 °F (2000)
Min Temperature 51 °F 42 °F 29 °F (1953)
Degree Days  
Heating Degree Days 10    
Growing Degree Days 6 (Base 50)    
Moisture  
Dew Point 50 °F    
Average Humidity 86    
Maximum Humidity 100    
Minimum Humidity 45    
Precipitation  
Precipitation 0.04 in - - ()
Sea Level Pressure  
Sea Level Pressure 30.21 in    
Wind  
Wind Speed 1 mph (SSE)    
Max Wind Speed 5 mph    
Max Gust Speed -    
Visibility 8 miles    
Events Rain    
Averages and records for this station are not official NWS values.
T = Trace of Precipitation, MM = Missing Value Source: NWS Daily Summary

Daily Weather History Graph

Daily Weather History Graph

Search for Another Location

Airport:

Trip Planner

Search our weather history database for the weather conditions in past years. The results will help you decide how hot, cold, wet, or windy it might be!

Date:

Astronomy

Aug. 04, 2014 Rise Set
Actual Time 6:03 AM PDT 8:09 PM PDT
Civil Twilight 5:33 AM PDT 8:38 PM PDT
Nautical Twilight 4:57 AM PDT 9:14 PM PDT
Astronomical Twilight 4:17 AM PDT 9:54 PM PDT
Moon 2:26 PM PDT (8/4) 12:13 AM PDT (8/4)
Length of Visible Light 15h 05m
Length of Day
14h 05m
First Quarter, 58% of the Moon is Illuminated
Aug 4
First Quarter
Aug 10
Full
Aug 17
Last Quarter
Aug 25
New
Sep 2
First Quarter

Hourly Weather History & Observations

Time (PDT) Temp. Dew Point Humidity Pressure Visibility Wind Dir Wind Speed Gust Speed Precip Events Conditions
12:15 AM 60.8 °F 39.2 °F 45% 30.19 in 10.0 mi SE 3.5 mph - N/A   Overcast
12:35 AM 59.0 °F 41.0 °F 51% 30.19 in 10.0 mi SSW 3.5 mph - N/A   Overcast
12:55 AM 59.0 °F 41.0 °F 51% 30.19 in 10.0 mi Calm Calm - N/A   Overcast
1:15 AM 59.0 °F 41.0 °F 51% 30.19 in 10.0 mi Calm Calm - N/A Rain Light Rain
1:35 AM 59.0 °F 42.8 °F 55% 30.19 in 10.0 mi Calm Calm - N/A   Light Drizzle
1:55 AM 59.0 °F 42.8 °F 55% 30.19 in 10.0 mi Calm Calm - N/A   Overcast
2:15 AM 57.2 °F 44.6 °F 63% 30.19 in 10.0 mi Calm Calm - N/A   Overcast
2:35 AM 55.4 °F 42.8 °F 63% 30.19 in 10.0 mi Calm Calm - N/A Rain Light Rain
2:55 AM 55.4 °F 46.4 °F 72% 30.19 in 10.0 mi Calm Calm - N/A   Light Drizzle
3:15 AM 55.4 °F 48.2 °F 77% 30.19 in 10.0 mi Calm Calm - N/A Rain Light Rain
3:35 AM 55.4 °F 50.0 °F 82% 30.19 in 10.0 mi North 4.6 mph - N/A Rain Light Rain
3:55 AM 55.4 °F 50.0 °F 82% 30.19 in 10.0 mi Calm Calm - N/A Rain Light Rain
4:15 AM 53.6 °F 50.0 °F 88% 30.19 in 10.0 mi South 4.6 mph - N/A   Drizzle
4:35 AM 53.6 °F 50.0 °F 88% 30.19 in 10.0 mi South 3.5 mph - N/A Rain Rain
4:55 AM 53.6 °F 50.0 °F 88% 30.20 in 10.0 mi Calm Calm - N/A Rain Light Rain
5:15 AM 53.6 °F 50.0 °F 88% 30.19 in 10.0 mi SE 3.5 mph - N/A   Overcast
5:35 AM 51.8 °F 50.0 °F 94% 30.20 in 10.0 mi South 3.5 mph - N/A   Overcast
5:55 AM 51.8 °F 50.0 °F 94% 30.20 in 10.0 mi Calm Calm - N/A Rain Light Rain
6:15 AM 51.8 °F 51.8 °F 100% 30.20 in 10.0 mi Calm Calm - 0.01 in Rain Light Rain
6:35 AM 51.8 °F 51.8 °F 100% 30.20 in 7.0 mi Calm Calm - 0.02 in Rain Rain
6:50 AM 53.6 °F 51.8 °F 94% 30.20 in 8.0 mi Calm Calm - N/A Rain Light Rain
7:45 AM 53.6 °F 51.8 °F 94% 30.22 in 8.0 mi Calm Calm - N/A Rain Light Rain
8:45 AM 53.6 °F 51.8 °F 94% 30.23 in 8.0 mi Calm Calm - N/A Rain Light Rain
9:55 AM 53.6 °F 51.8 °F 94% 30.23 in 5.0 mi Calm Calm - N/A Rain Rain
10:45 AM 55.4 °F 51.8 °F 88% 30.23 in 5.0 mi Calm Calm - N/A   Overcast
11:55 AM 53.6 °F 53.6 °F 100% 30.23 in 2.0 mi Calm Calm - N/A Rain Rain
12:55 PM 55.4 °F 53.6 °F 94% 30.24 in 2.0 mi Calm Calm - N/A Rain Light Rain
1:45 PM 55.4 °F 53.6 °F 94% 30.24 in 1.0 mi Calm Calm - N/A Rain Rain
2:45 PM 55.4 °F 53.6 °F 94% 30.23 in 3.0 mi Calm Calm - N/A Rain Light Rain
3:45 PM 57.2 °F 53.6 °F 88% 30.23 in 2.0 mi Calm Calm - N/A Rain Light Rain
4:45 PM 57.2 °F 55.4 °F 94% 30.22 in 2.0 mi Calm Calm - N/A Rain Light Rain
5:50 PM 57.2 °F 55.4 °F 94% 30.23 in 5.0 mi Calm Calm - N/A Rain Light Rain
6:15 PM 55.4 °F 55.4 °F 100% 30.22 in 10.0 mi Calm Calm - 0.01 in   Drizzle
6:55 PM 55.4 °F 55.4 °F 100% 30.22 in 10.0 mi Calm Calm - 0.01 in   Overcast
7:15 PM 55.4 °F 55.4 °F 100% 30.23 in 10.0 mi Calm Calm - N/A   Overcast
7:35 PM 55.4 °F 53.6 °F 94% 30.23 in 10.0 mi Calm Calm - N/A   Drizzle
7:55 PM 55.4 °F 53.6 °F 94% 30.23 in 10.0 mi Calm Calm - N/A Rain Light Rain
8:15 PM 55.4 °F 53.6 °F 94% 30.22 in 7.0 mi Calm Calm - N/A   Light Drizzle
8:35 PM 53.6 °F 53.6 °F 100% 30.23 in 5.0 mi Calm Calm - N/A   Overcast
8:55 PM 55.4 °F 53.6 °F 94% 30.23 in 10.0 mi Calm Calm - 0.01 in Rain Rain
9:15 PM 53.6 °F 53.6 °F 100% 30.23 in 10.0 mi Calm Calm - N/A   Drizzle
9:35 PM 53.6 °F 53.6 °F 100% 30.24 in 7.0 mi Calm Calm - N/A   Light Drizzle
10:15 PM 53.6 °F 53.6 °F 100% 30.23 in 10.0 mi Calm Calm - N/A Rain Rain
10:35 PM 53.6 °F 53.6 °F 100% 30.23 in 10.0 mi North 3.5 mph - N/A Rain Light Rain
10:55 PM 53.6 °F 50.0 °F 88% 30.23 in 10.0 mi NNW 4.6 mph - N/A   Mostly Cloudy
11:15 PM 51.8 °F 48.2 °F 88% 30.23 in 10.0 mi Calm Calm - N/A   Overcast
11:35 PM 51.8 °F 48.2 °F 88% 30.23 in 10.0 mi Calm Calm - N/A Rain Light Rain
11:55 PM 51.8 °F 50.0 °F 94% 30.24 in 10.0 mi Calm Calm - N/A Rain Rain